OBJECT D, 60748

Orbit data source: Space-Track

You're viewing an Uncataloged Satellite

Recently launched and/or uncataloged satellites may have evolving metadata. Metadata may include but not limited to: Owner, Maufacturer, Bus, Motor, and Mission.

OBJECT D, 60748 is a Chinese satellite in SSO that was launched on Thu, 29 Aug 2024 UTC via a GUSHENXING 1 launch vehicle from the Yellow Sea Launch Area, China (YSLA). Unknown objects in Earth's orbit typically refer to objects detected orbiting the Earth but have not yet been identified or cataloged. These objects could be anything from previously untracked satellites, spent rocket stages, debris from satellite collisions, or even natural meteoroids temporarily captured by Earth's gravity.

Loading next visibility...
OBJECT D details
Identifier
60748, 2024-153D
Orbit
SSO
Last TLE update8 hours ago
Origin
Flag of CNJTXZ (CN / PRC)
ManufacturerJTXZ
MissionOperational spacecraft
Bus & MotorJTX, Unknown motor
Mass~50 kg wet, ~50 kg dry
Launch date (UTC)
2024-08-29 (5 months ago)
Launch vehicle
GUSHENXING 1
Launch site
Yellow Sea Launch Area, China (YSLA)
Object typeUnknown
Shape & HBRUnknown
Radar Cross SectionMedium (>0.1 m² and <1 m²)

Expand to show TLE details & history

TLE from 8 hours ago
0 OBJECT D
1 60748U 24153D   25014.91045189  .00018092  00000-0  90624-3 0  9993
2 60748  97.6258 138.5033 0015027 170.1443 190.0088 15.17337115 20981
Epoch: 2025-01-14T21:51Z
Definitive object data (Epoch: 2025-01-14T21:51:03.043Z)
Latitude0.00002°
Longitude56.13025°
Altitude527.175 km
Speed7.594 km/s
True Right ascension09h 14m 00s
True Declination0° 00' 00"
Sunlit
Object was in full shadow at TLE epoch
Visualization TLE readout
Latitude40.15567°
Longitude50.01906°
Altitude526.102 km
Speed7.6 km/s
Apparent Right ascension13h 14m 00s
Apparent Declination6° 56' 47"
Sunlit
Object is in full shadow
Visualization observer readout
Local Sidereal Time06:35:50
Azimuth78.547° E
Elevation-2.785°
Doppler factor1
Orbital elements
Apogee altitude521.223 km
Perigee altitude500.519 km
Semi-major axis6,889.008 km
Eccentricity0.0015027
Inclination97.6258°
RAAN138.5033°
Arg. of periapsis170.1443°
True anomaly189.97893°
Mean anomaly190.0088°
Eccentric anomaly189.99386°
Mean motion3.79584 °/min
BSTAR0.00090624
Orbital period94.84 mins
Loading maneuver chart data...
Loading historical data...
Loading historical data...
Loading historical data...
Loading historical data...
Loading historical data...
Loading historical data...
Loading historical data...

OBJECT D Visibility forecast

Observer location: undefined°, undefined

Span
Click to sort rows by Start time (UTC) header in descending order
Start Az.
Max El. time (UTC)
Max El. Az.
Max El.
End time (UTC)
End Az.
5 mins2025-01-15 07:29:32.609Z123.651° SE2025-01-15 07:31:32.609Z84.637° E24.863°2025-01-15 07:34:32.609Z17.382° NNE
4 mins2025-01-15 09:04:32.609Z237.805° WSW2025-01-15 09:05:32.609Z256.301° W16.53°2025-01-15 09:08:32.609Z308.923° NW
5 mins2025-01-15 20:35:32.609Z39.112° NE2025-01-15 20:37:32.609Z97.585° ESE33.361°2025-01-15 20:40:32.609Z167.654° S
|